When you browse on this site, cookies collect data to enhance your experience and personalize the content and advertising you see.
Visit our Privacy Policy to learn more. By continuing to use the site, you agree to this use of cookies and data.
  • In United Kingdom
  • List of Countries
  • For 7 days
  • Water Temperature
  • Weather Map
  • Weather Widgets
  • user-avatar
    Login

    Hourly Weather Meinerzhagen

    Today, 15 September, Sunday

    Time Temperature Precipitation Wind Pressure Humidity
    00:00 +11°C° 0 mm 1 mps 731 mmHg 69%
    01:00 +11°C° 0 mm 1 mps 731 mmHg 70%
    02:00 +11°C° 0 mm 1 mps 730 mmHg 72%
    03:00 +10°C° 0 mm 1 mps 730 mmHg 73%
    04:00 +10°C° 0 mm 1 mps 729 mmHg 75%
    05:00 +10°C° 0 mm 1 mps 729 mmHg 75%
    06:00 +10°C° 0 mm 1 mps 729 mmHg 75%
    07:00 +11°C° 0 mm 1 mps 729 mmHg 76%
    08:00 +13°C° 0 mm 1 mps 729 mmHg 67%
    09:00 +16°C° 0 mm 1 mps 729 mmHg 59%
    10:00 +18°C° 0 mm 2 mps 729 mmHg 51%
    11:00 +19°C° 0 mm 2 mps 729 mmHg 47%
    12:00 +20°C° 0 mm 2 mps 729 mmHg 44%
    13:00 +21°C° 0 mm 2 mps 728 mmHg 40%
    14:00 +21°C° 0 mm 2 mps 728 mmHg 40%
    15:00 +21°C° 0 mm 3 mps 728 mmHg 40%
    16:00 +21°C° 0 mm 3 mps 728 mmHg 40%
    17:00 +19°C° 0 mm 2 mps 727 mmHg 48%
    18:00 +18°C° 0 mm 1 mps 727 mmHg 56%
    19:00 +14°C° 0 mm 1 mps 727 mmHg 63%
    20:00 +14°C° 0 mm 1 mps 727 mmHg 67%
    21:00 +13°C° 0 mm 1 mps 727 mmHg 70%
    22:00 +11°C° 0 mm 0 mps 727 mmHg 73%
    23:00 +12°C° 0 mm 1 mps 727 mmHg 73%

    Tomorrow, 16 September, Monday

    Time Temperature Precipitation Wind Pressure Humidity
    00:00 +12°C° 0 mm 1 mps 727 mmHg 73%
    01:00 +12°C° 0 mm 1 mps 727 mmHg 72%
    02:00 +12°C° 0 mm 1 mps 726 mmHg 73%
    03:00 +12°C° 0 mm 1 mps 726 mmHg 73%
    04:00 +12°C° 0 mm 1 mps 726 mmHg 74%
    05:00 +12°C° 0 mm 1 mps 726 mmHg 74%
    06:00 +12°C° 0 mm 1 mps 725 mmHg 74%
    07:00 +13°C° 0 mm 1 mps 725 mmHg 73%
    08:00 +13°C° 0 mm 1 mps 725 mmHg 72%
    09:00 +14°C° 0 mm 2 mps 725 mmHg 71%
    10:00 +15°C° 0 mm 2 mps 725 mmHg 70%
    11:00 +15°C° 0.1 mm 2 mps 725 mmHg 72%
    12:00 +15°C° 0.1 mm 2 mps 725 mmHg 74%
    13:00 +15°C° 0.1 mm 2 mps 725 mmHg 77%
    14:00 +15°C° 0.1 mm 2 mps 725 mmHg 79%
    15:00 +15°C° 0.1 mm 2 mps 725 mmHg 81%
    16:00 +14°C° 0.1 mm 3 mps 724 mmHg 84%
    17:00 +14°C° 0.2 mm 3 mps 725 mmHg 87%
    18:00 +13°C° 0.2 mm 3 mps 725 mmHg 91%
    19:00 +14°C° 0.2 mm 2 mps 725 mmHg 94%
    20:00 +13°C° 0 mm 2 mps 725 mmHg 93%
    21:00 +13°C° 0 mm 2 mps 725 mmHg 93%
    22:00 +12°C° 0 mm 2 mps 726 mmHg 92%
    23:00 +12°C° 0 mm 2 mps 726 mmHg 91%

    Day after tomorrow, 17 September, Tuesday

    Time Temperature Precipitation Wind Pressure Humidity
    00:00 +11°C° 0 mm 1 mps 726 mmHg 90%
    01:00 +11°C° 0 mm 1 mps 726 mmHg 89%
    02:00 +10°C° 0 mm 1 mps 726 mmHg 90%
    03:00 +8°C° 0 mm 2 mps 726 mmHg 90%
    04:00 +7°C° 0 mm 2 mps 726 mmHg 91%
    05:00 +7°C° 0 mm 2 mps 726 mmHg 90%
    06:00 +8°C° 0 mm 1 mps 726 mmHg 90%
    07:00 +7°C° 0 mm 1 mps 726 mmHg 89%
    08:00 +8°C° 0 mm 2 mps 726 mmHg 82%
    09:00 +9°C° 0 mm 2 mps 727 mmHg 75%
    10:00 +11°C° 0 mm 3 mps 727 mmHg 67%
    11:00 +12°C° 0 mm 4 mps 727 mmHg 64%
    12:00 +13°C° 0 mm 4 mps 727 mmHg 60%
    13:00 +13°C° 0 mm 4 mps 727 mmHg 57%
    14:00 +13°C° 0 mm 4 mps 727 mmHg 59%
    15:00 +13°C° 0 mm 4 mps 727 mmHg 60%
    16:00 +13°C° 0 mm 4 mps 726 mmHg 62%
    17:00 +11°C° 0 mm 4 mps 726 mmHg 67%
    18:00 +10°C° 0 mm 3 mps 726 mmHg 72%
    19:00 +9°C° 0 mm 3 mps 726 mmHg 76%
    20:00 +7°C° 0 mm 2 mps 727 mmHg 79%
    21:00 +6°C° 0 mm 2 mps 727 mmHg 82%
    22:00 +6°C° 0 mm 1 mps 727 mmHg 84%
    23:00 +6°C° 0 mm 1 mps 727 mmHg 86%

    18 September, Wednesday

    Time Temperature Precipitation Wind Pressure Humidity
    00:00 +6°C° 0 mm 1 mps 727 mmHg 87%
    01:00 +5°C° 0 mm 1 mps 727 mmHg 89%
    02:00 +5°C° 0 mm 1 mps 727 mmHg 89%
    03:00 +4°C° 0 mm 0 mps 727 mmHg 90%
    04:00 +4°C° 0 mm 0 mps 727 mmHg 91%
    05:00 +4°C° 0 mm 0 mps 728 mmHg 90%
    06:00 +4°C° 0 mm 0 mps 728 mmHg 89%
    07:00 +5°C° 0 mm 0 mps 728 mmHg 88%
    08:00 +8°C° 0 mm 1 mps 728 mmHg 78%
    09:00 +10°C° 0 mm 1 mps 729 mmHg 68%
    10:00 +12°C° 0 mm 2 mps 729 mmHg 58%
    11:00 +12°C° 0 mm 2 mps 729 mmHg 56%
    12:00 +13°C° 0 mm 2 mps 729 mmHg 53%
    13:00 +13°C° 0 mm 2 mps 729 mmHg 50%
    14:00 +12°C° 0 mm 3 mps 729 mmHg 51%
    15:00 +12°C° 0 mm 3 mps 729 mmHg 52%
    16:00 +12°C° 0 mm 3 mps 728 mmHg 52%
    17:00 +12°C° 0 mm 2 mps 728 mmHg 60%
    18:00 +9°C° 0 mm 2 mps 728 mmHg 67%
    19:00 +9°C° 0 mm 1 mps 729 mmHg 75%
    20:00 +8°C° 0 mm 1 mps 729 mmHg 80%
    21:00 +7°C° 0 mm 1 mps 729 mmHg 85%
    22:00 +6°C° 0 mm 1 mps 730 mmHg 90%
    23:00 +6°C° 0 mm 1 mps 730 mmHg 91%

    19 September, Thursday

    Time Temperature Precipitation Wind Pressure Humidity
    00:00 +6°C° 0 mm 1 mps 730 mmHg 92%
    01:00 +5°C° 0 mm 1 mps 730 mmHg 93%
    02:00 +5°C° 0 mm 1 mps 730 mmHg 93%
    03:00 +5°C° 0 mm 1 mps 730 mmHg 94%
    04:00 +4°C° 0 mm 1 mps 730 mmHg 94%
    05:00 +5°C° 0 mm 1 mps 730 mmHg 93%
    06:00 +5°C° 0 mm 1 mps 730 mmHg 92%
    07:00 +4°C° 0 mm 0 mps 730 mmHg 92%
    08:00 +7°C° 0 mm 1 mps 731 mmHg 83%
    09:00 +8°C° 0 mm 2 mps 732 mmHg 74%
    10:00 +10°C° 0 mm 2 mps 732 mmHg 66%
    11:00 +11°C° 0 mm 3 mps 732 mmHg 61%
    12:00 +11°C° 0 mm 3 mps 732 mmHg 56%
    13:00 +12°C° 0 mm 3 mps 732 mmHg 51%
    14:00 +12°C° 0 mm 3 mps 732 mmHg 52%
    15:00 +12°C° 0 mm 3 mps 732 mmHg 53%
    16:00 +12°C° 0 mm 3 mps 732 mmHg 54%
    17:00 +11°C° 0 mm 3 mps 732 mmHg 62%
    18:00 +9°C° 0 mm 2 mps 732 mmHg 70%
    19:00 +7°C° 0 mm 2 mps 732 mmHg 78%
    20:00 +8°C° 0 mm 1 mps 733 mmHg 82%
    21:00 +7°C° 0 mm 1 mps 733 mmHg 87%
    22:00 +6°C° 0 mm 1 mps 733 mmHg 91%
    23:00 +6°C° 0 mm 1 mps 733 mmHg 91%

    20 September, Friday

    Time Temperature Precipitation Wind Pressure Humidity
    00:00 +5°C° 0 mm 1 mps 733 mmHg 92%
    01:00 +4°C° 0 mm 0 mps 733 mmHg 93%
    02:00 +4°C° 0 mm 0 mps 733 mmHg 93%
    03:00 +4°C° 0 mm 0 mps 733 mmHg 93%
    04:00 +4°C° 0 mm 0 mps 733 mmHg 93%
    05:00 +4°C° 0 mm 0 mps 733 mmHg 93%
    06:00 +4°C° 0 mm 0 mps 733 mmHg 92%
    07:00 +4°C° 0 mm 0 mps 733 mmHg 91%
    08:00 +7°C° 0 mm 0 mps 734 mmHg 82%
    09:00 +9°C° 0 mm 0 mps 734 mmHg 72%
    10:00 +12°C° 0 mm 0 mps 735 mmHg 62%
    11:00 +13°C° 0 mm 0 mps 734 mmHg 56%
    12:00 +14°C° 0 mm 0 mps 734 mmHg 49%
    13:00 +16°C° 0 mm 0 mps 734 mmHg 42%
    14:00 +16°C° 0 mm 0 mps 733 mmHg 42%
    15:00 +15°C° 0 mm 0 mps 733 mmHg 42%
    16:00 +15°C° 0 mm 0 mps 732 mmHg 41%
    17:00 +13°C° 0 mm 0 mps 732 mmHg 50%
    18:00 +10°C° 0 mm 0 mps 731 mmHg 58%
    19:00 +8°C° 0 mm 0 mps 731 mmHg 67%
    20:00 +9°C° 0 mm 1 mps 731 mmHg 69%
    21:00 +8°C° 0 mm 1 mps 731 mmHg 70%
    22:00 +7°C° 0 mm 1 mps 731 mmHg 72%
    23:00 +7°C° 0 mm 1 mps 730 mmHg 72%
    Show more